Parsons, KS

11:47 PM CST on December 13, 2019 (GMT -0600)
Tri-City

Weather History for KPPF - November, 2019

Change the Weather History Date:

Wednesday, November 13, 2019

  Actual Average Record
Temperature  
Mean Temperature 32 °F -  
Max Temperature 45 °F 57 °F 82 °F (1999)
Min Temperature 19 °F 36 °F 9 °F (1986)
Degree Days  
Heating Degree Days 33    
Moisture  
Dew Point 18 °F    
Average Humidity 61    
Maximum Humidity 84    
Minimum Humidity 36    
Precipitation  
Precipitation 0.00 in - - ()
Sea Level Pressure  
Sea Level Pressure 30.15 in    
Wind  
Wind Speed 7 mph ()    
Max Wind Speed 18 mph    
Max Gust Speed 32 mph    
Visibility 10.0 miles    
Events      
Averages and records for this station are not official NWS values.
T = Trace of Precipitation, MM = Missing Value Source: Averaged Metar Reports

Daily Weather History Graph

Daily Weather History Graph

Search for Another Location

Airport or City:

Astronomy

Nov. 13, 2019 Rise Set
Actual Time 6:58 AM CST 5:13 PM CST
Civil Twilight 6:31 AM CST 5:40 PM CST
Nautical Twilight 5:59 AM CST 6:12 PM CST
Astronomical Twilight 5:29 AM CST 6:43 PM CST
Moon 6:17 PM CST (11/13) 7:52 AM CST (11/13)
Length of Visible Light 11h 09m
Length of Day
10h 14m
Full, 99% of the Moon is Illuminated
Nov 13
Full
Nov 19
Last Quarter
Nov 26
New
Dec 4
First Quarter
Dec 11
Full

Hourly Weather History & Observations

Time (CST) Temp. Windchill Dew Point Humidity Pressure Visibility Wind Dir Wind Speed Gust Speed Precip Events Conditions
12:52 AM 19.9 °F 12.1 °F 14.0 °F 78% 30.30 in 10.0 mi South 5.8 mph - N/A   Clear
1:52 AM 21.0 °F 14.6 °F 14.0 °F 74% 30.26 in 10.0 mi South 4.6 mph - N/A   Clear
2:52 AM 21.0 °F 13.4 °F 14.0 °F 74% 30.24 in 10.0 mi Variable 5.8 mph - N/A   Clear
3:52 AM 21.0 °F 10.6 °F 15.1 °F 78% 30.22 in 10.0 mi SSW 9.2 mph - N/A   Clear
4:52 AM 21.9 °F 13.4 °F 15.1 °F 75% 30.21 in 10.0 mi South 6.9 mph - N/A   Clear
5:52 AM 21.0 °F 11.4 °F 15.1 °F 78% 30.19 in 10.0 mi South 8.1 mph - N/A   Clear
6:52 AM 23.0 °F 11.7 °F 15.1 °F 72% 30.18 in 10.0 mi South 11.5 mph - N/A   Clear
7:52 AM 25.0 °F 14.2 °F 17.1 °F 72% 30.17 in 10.0 mi South 11.5 mph 19.6 mph N/A   Clear
8:52 AM 30.0 °F 19.5 °F 18.0 °F 61% 30.18 in 10.0 mi South 13.8 mph 21.9 mph N/A   Clear
9:52 AM 34.0 °F 23.0 °F 18.0 °F 52% 30.14 in 10.0 mi South 18.4 mph 32.2 mph N/A   Clear
10:52 AM 37.0 °F 27.7 °F 19.0 °F 48% 30.14 in 10.0 mi SSW 16.1 mph 28.8 mph N/A   Clear
11:52 AM 39.9 °F 31.8 °F 19.0 °F 43% 30.10 in 10.0 mi South 15.0 mph 27.6 mph N/A   Clear
12:52 PM 43.0 °F 35.1 °F 19.9 °F 40% 30.06 in 10.0 mi South 17.3 mph 28.8 mph N/A   Clear
1:52 PM 43.0 °F 36.0 °F 18.0 °F 37% 30.04 in 10.0 mi South 13.8 mph 24.2 mph N/A   Clear
2:52 PM 44.1 °F 37.7 °F 19.0 °F 37% 30.04 in 10.0 mi South 12.7 mph 19.6 mph N/A   Clear
3:52 PM 45.0 °F 40.6 °F 19.0 °F 36% 30.06 in 10.0 mi South 8.1 mph - N/A   Clear
4:52 PM 44.1 °F 40.8 °F 19.0 °F 37% 30.06 in 10.0 mi South 5.8 mph - N/A   Clear
5:52 PM 39.0 °F 36.8 °F 19.9 °F 46% 30.08 in 10.0 mi SSE 3.5 mph - N/A   Clear
6:52 PM 37.0 °F 34.5 °F 19.9 °F 50% 30.11 in 10.0 mi South 3.5 mph - N/A   Clear
7:52 PM 32.0 °F - 21.0 °F 64% 30.12 in 10.0 mi Calm Calm - N/A   Clear
8:52 PM 28.9 °F - 19.9 °F 69% 30.14 in 10.0 mi Calm Calm - N/A   Clear
9:52 PM 27.0 °F - 21.9 °F 81% 30.16 in 10.0 mi Calm Calm - N/A   Clear
10:52 PM 26.1 °F - 21.9 °F 84% 30.16 in 10.0 mi Calm Calm - N/A   Clear
11:52 PM 26.1 °F - 21.9 °F 84% 30.17 in 10.0 mi Calm Calm - N/A   Clear